This is the latest recevied weather packets stored in our database for station/object HK4CL-10. If no packets are shown the sender has not sent any weather packets the latest 10 day(s).
| Time | Temp. | Humidity | Pressure | Rain* | Wind** | Luminosity | Snow |
|---|---|---|---|---|---|---|---|
| 1787706163 | 21.67° C | 61% | 819.3 hPa | - | - | - | - |
| 1787705263 | 22.22° C | 60% | 819.2 hPa | - | - | - | - |
| 1787704363 | 22.78° C | 56% | 819.3 hPa | - | - | - | - |
| 1787703462 | 22.78° C | 54% | 819.2 hPa | - | - | - | - |
| 1787702620 | 22.78° C | 53% | 819.1 hPa | - | - | - | - |
| 1787702562 | 22.78° C | 53% | 819.1 hPa | - | - | - | - |
| 1787701662 | 22.78° C | 52% | 818.8 hPa | - | - | - | - |
| 1787700761 | 23.33° C | 51% | 818.7 hPa | - | - | - | - |
| 1787699861 | 23.33° C | 50% | 818.4 hPa | - | - | - | - |
| 1787698961 | 23.33° C | 48% | 818.1 hPa | - | - | - | - |
| 1787698061 | 23.89° C | 47% | 817.7 hPa | - | - | - | - |
| 1787697161 | 24.44° C | 45% | 817.4 hPa | - | - | - | - |
| 1787696260 | 25° C | 42% | 817.1 hPa | - | - | - | - |
| 1787695391 | 26.11° C | 40% | 817.2 hPa | - | - | - | - |
| 1787695360 | 26.11° C | 40% | 817.2 hPa | - | - | - | - |
| 1787694460 | 26.67° C | 39% | 817.1 hPa | - | - | - | - |
| 1787693560 | 26.67° C | 39% | 817.3 hPa | - | - | - | - |
| 1787692659 | 27.22° C | 36% | 817.4 hPa | - | - | - | - |
| 1787691759 | 27.22° C | 36% | 817.4 hPa | - | - | - | - |
| 1787690858 | 27.78° C | 33% | 817.4 hPa | - | - | - | - |
| 1787689958 | 28.33° C | 33% | 817.3 hPa | - | - | - | - |
| 1787689057 | 28.33° C | 34% | 817.4 hPa | - | - | - | - |
| 1787688162 | 27.78° C | 35% | 817.5 hPa | - | - | - | - |
| 1787687262 | 27.78° C | 36% | 817.5 hPa | - | - | - | - |
| 1787686361 | 29.44° C | 39% | 817.7 hPa | - | - | - | - |
* Rain since midnight (hover to see other rain measurements)
** Current wind speed in m/s (hover to see current wind gust speed)